• MPC Preparation (Info)

  • MPEC 2013-U33 : 2013 UP1

    The following Minor Planet Electronic Circular may be linked-to from your own Web pages, but must not otherwise be redistributed electronically.

    A form allowing access to any MPEC is at the bottom of this page.


    Read MPEC 2013-U32 Read MPEC 2013-U34


    M.P.E.C. 2013-U33                                Issued 2013 Oct. 24, 20:14 UT
    
         The Minor Planet Electronic Circulars contain information on unusual
             minor planets and routine data on comets.  They are published
       on behalf of Commission 20 of the International Astronomical Union by the
              Minor Planet Center, Smithsonian Astrophysical Observatory,
                              Cambridge, MA 02138, U.S.A.
    
                 Prepared using the Tamkin Foundation Computer Network
    
                                  MPC@CFA.HARVARD.EDU
                URL https://www.minorplanetcenter.net/    ISSN 1523-6714
    
                                       2013 UP1
    
    Observations:
         K13U01P  C2013 10 23.29021 00 41 01.370+37 00 47.54         21.2 rLEU033F51
         K13U01P* C2013 10 23.30112 00 41 04.650+37 01 17.55         20.1 rLEU033F51
         K13U01P  C2013 10 23.31432 00 41 08.344+37 01 54.03         20.3 iLEU033F51
         K13U01P  C2013 10 23.32663 00 41 11.853+37 02 27.22         20.0 iLEU033F51
         K13U01P KC2013 10 23.98220 00 44 37.72 +37 30 09.1                qEU033J95
         K13U01P KC2013 10 23.99174 00 44 40.58 +37 30 33.9          20.1 RqEU033J95
         K13U01P KC2013 10 24.00145 00 44 43.55 +37 30 58.0          20.6 RqEU033J95
         K13U01P KC2013 10 24.14082 00 45 32.45 +37 36 55.1          19.5 RqEU033G58
         K13U01P KC2013 10 24.14535 00 45 33.83 +37 37 06.6          19.9 RqEU033G58
         K13U01P KC2013 10 24.14912 00 45 34.92 +37 37 18.0          20.0 RqEU033G58
         K13U01P KC2013 10 24.17007 00 45 40.73 +37 38 21.7          20.4 RoEU033291
         K13U01P KC2013 10 24.17099 00 45 40.98 +37 38 24.3          20.3 RoEU033291
         K13U01P KC2013 10 24.17191 00 45 41.26 +37 38 26.8          20.3 RoEU033291
         K13U01P  C2013 10 24.18094 00 45 43.88 +37 38 51.1          20.0 RoEU033926
         K13U01P  C2013 10 24.18862 00 45 46.12 +37 39 11.1          19.8 RoEU033926
         K13U01P  C2013 10 24.19623 00 45 48.37 +37 39 30.7          19.8 RoEU033926
    
    Observer details:
    291 LPL/Spacewatch II.  Observer T. H. Bressi.  1.8-m f/2.7 reflector + CCD.
    926 Tenagra II Observatory.  Observers M. Schwartz, P. R. Holvorcem.  0.81-m
        f/7 Ritchey-Chretien + CCD.
    F51 Pan-STARRS 1, Haleakala.  Observers N. Primak, A. Schultz. T. Goggia,
        M. Willman.  Measurers PS1 Science Consortium, P. Veres.  1.8-m
        Ritchey-Chretien + CCD.
    G58 Chabot Space and Science Center, Oakland.  Observer G. McKeegan.  0.9-m
        f/4.5 Cassegrain + CCD.
    J95 Great Shefford.  Observer P. Birtwhistle.  0.40-m f/6.0 Schmidt-Cassegrain
        + CCD.
    
    Orbital elements:
    2013 UP1                                                 Earth MOID = 0.1307 AU
    Epoch 2013 Nov. 4.0 TT = JDT 2456600.5                  MPC
    M   3.96338              (2000.0)            P               Q
    n   0.25303884     Peri.   51.41267     +0.90314718     -0.42810412
    a   2.4755854      Node   333.88732     +0.36742893     +0.80979944
    e   0.5498880      Incl.    4.22614     +0.22208367     +0.40118790
    P   3.90           H   23.4           G   0.15           U   8
    Residuals in seconds of arc
    131023 F51  0.6-  0.2-    131024 J95  0.6+  0.3+    131024 291  0.1-  0.0
    131023 F51  1.0+  0.2-    131024 G58  0.3+  0.0     131024 926  0.0   0.1+
    131023 F51  0.1-  0.3+    131024 G58  0.4+  0.5-    131024 926  0.2-  0.2+
    131023 F51  0.3-  0.1+    131024 G58  0.1-  0.9+    131024 926  0.1+  0.1+
    131023 J95  0.4-  0.6-    131024 291  0.0   0.3-
    131023 J95  0.2-  0.3+    131024 291  0.2-  0.1-
    
    Ephemeris:
    2013 UP1                 a,e,i = 2.48, 0.55, 4                   q = 1.1143
    Date    TT    R. A. (2000) Decl.     Delta      r     Elong.  Phase     V
    2013 09 24    23 01 04.9 +08 17 56   0.1582  1.1551   162.6    15.1    20.5
    ...
    2013 10 09    23 37 31.2 +23 28 13   0.1343  1.1212   154.1    22.9    20.4
    ...
    2013 10 17    00 09 45.6 +31 40 34   0.1326  1.1146   151.2    25.5    20.4
    ...
    2013 10 23    00 39 27.1 +36 47 40   0.1364  1.1152   150.0    26.5    20.5
    2013 10 24    00 44 44.0 +37 31 09   0.1375  1.1157   149.9    26.6    20.5
    2013 10 25    00 50 04.7 +38 12 09   0.1386  1.1164   149.8    26.6    20.5
    ...
    2013 10 31    01 22 49.7 +41 24 16   0.1478  1.1231   149.9    26.3    20.7
    ...
    2013 11 08    02 04 48.3 +43 22 05   0.1660  1.1392   151.3    24.7    20.9
    ...
    2013 11 23    03 05 42.1 +42 11 40   0.2171  1.1889   155.8    19.9    21.5
    
    A. U. Tomatic                (C) Copyright 2013 MPC           M.P.E.C. 2013-U33
    

    Read MPEC 2013-U32 Read MPEC 2013-U34


    MPEC number:

    Enter an MPEC number in one of the following forms:

    • 1997-B01 (the full form)
    • J97B01 (the packed version of the full form)
    • B01 (the abbreviated form)